Wind_Speed
5 4 1 4 5 8 8 8 8 6 7 7 5 4 7 5 2 3 3 6 10 7 3 6 8 7 7 7 9 11 10 7 5 6 7 8 9 8 6 5 5 5 5 5 5 5 5 5 6 7 9 10 10 9 9 9 8 7 6 5 3 2 4 5 6 7 8 8 8 9 9 9 8 9 10 11 12 11 10 10 11 8 6 7 7 8
4 5 4 8 8 10 10 10 8 6 6 6 7 5 5 5 3 4 5 5 6 5 3 5 7 6 7 8 9 11 9 6 8 9 9 11 10 10 7 6 6 5 5 5 5 5 4 5 6 5 8 10 9 8 8 8 8 7 6 4 2 3 4 5 5 6 7 8 8 8 8 8 9 10 10 12 12 10 11 12 13 11 9 8 7 8
4 1 6 10 11 7 7 10 9 6 7 5 6 6 5 4 3 4 4 5 4 5 4 5 7 5 5 6 7 11 8 9 13 12 11 13 12 11 9 7 7 6 6 5 4 4 3 4 5 5 6 7 8 7 7 7 7 7 5 3 2 2 3 4 3 4 5 6 8 10 10 9 9 11 11 12 12 11 12 13 13 13 12 11 7 7
2 4 8 8 7 2 3 8 8 5 7 5 5 7 5 4 4 3 3 5 4 4 6 7 6 4 2 2 2 7 9 11 15 13 12 13 11 10 9 8 8 7 7 6 5 5 4 4 4 5 6 7 7 7 6 6 6 5 4 2 1 2 2 2 1 3 4 6 8 11 11 10 10 12 13 12 11 12 14 14 14 13 13 13 10 9
3 7 5 2 3 1 1 3 4 6 5 4 5 7 6 5 6 6 7 7 4 4 8 9 6 4 3 3 1 3 6 9 11 12 11 12 11 9 9 9 7 6 6 7 6 6 6 6 6 6 7 7 8 7 6 5 5 4 3 2 1 2 1 3 4 5 6 7 9 11 12 12 12 12 11 10 10 12 14 14 13 12 12 13 12 13
4 4 2 3 4 2 3 4 2 6 6 2 4 9 10 7 8 11 12 9 6 3 5 6 5 3 5 3 1 2 4 5 7 10 11 12 12 10 11 10 8 6 6 5 5 5 7 6 6 7 7 8 8 7 6 6 6 5 4 3 4 4 5 6 6 8 10 11 11 12 12 11 11 10 9 9 9 11 13 13 12 12 12 12 12 13
1 7 9 4 4 5 6 4 1 5 7 2 4 10 11 10 12 14 11 6 5 4 3 3 6 1 4 5 4 1 4 4 3 7 10 13 14 12 10 10 9 7 6 5 4 5 6 6 6 6 6 6 7 7 6 6 6 5 5 4 5 7 8 8 9 10 12 13 11 9 7 7 8 8 8 9 10 11 13 13 11 12 12 12 12 12
1 8 9 6 6 6 5 3 2 5 7 2 5 11 11 11 12 11 9 5 4 4 3 6 6 4 2 4 7 3 4 5 3 4 7 11 14 13 11 9 8 6 5 4 4 4 4 5 6 5 4 5 5 6 6 5 6 5 5 5 7 9 9 9 10 11 11 11 10 7 6 7 7 8 9 9 10 12 14 13 11 12 12 12 13 13
1 5 4 5 6 5 2 2 3 6 5 2 6 11 11 10 10 9 9 5 3 5 5 3 4 5 2 4 7 4 4 5 2 3 6 9 11 12 11 9 7 5 4 2 1 0 1 2 4 4 4 5 5 5 5 5 7 7 7 6 7 8 9 9 10 10 10 10 11 10 9 9 9 9 10 10 11 13 14 13 11 12 13 13 14 15
1 4 5 5 4 2 2 6 3 6 3 2 7 9 7 8 9 9 8 5 4 6 5 4 3 6 2 3 5 4 3 3 2 1 3 7 9 9 8 6 6 4 4 2 1 2 2 2 2 4 5 6 6 6 5 6 7 8 9 9 8 9 9 10 11 11 11 11 13 14 13 12 10 10 11 11 11 13 14 14 12 13 15 16 16 16
1 4 4 4 1 1 1 4 1 4 2 3 8 7 6 6 5 5 4 4 6 4 2 3 4 6 3 1 2 1 1 1 3 3 4 7 10 9 6 4 3 2 2 1 2 4 4 3 2 3 4 5 6 7 7 7 8 8 9 11 11 11 11 13 14 14 13 12 13 14 14 14 13 11 11 12 12 13 14 15 15 15 16 17 17 17
4 3 0 1 2 1 3 5 4 4 3 4 6 5 5 3 4 5 4 4 6 1 3 2 9 9 5 0 4 3 2 3 3 5 4 7 8 8 7 5 3 3 3 2 3 5 6 5 5 4 3 4 5 6 7 7 8 9 10 11 13 13 13 14 15 17 16 15 14 14 14 15 15 14 14 15 14 14 14 16 16 17 18 18 18 18
4 3 4 2 3 3 5 4 5 6 6 4 5 5 5 1 4 4 3 3 2 1 1 6 10 7 4 3 4 4 4 3 6 10 10 12 12 9 7 6 4 5 6 5 4 6 7 7 8 7 5 4 5 5 6 7 7 8 9 11 14 14 15 15 16 17 18 18 17 17 16 15 15 17 18 18 18 16 16 16 16 17 18 18 19 20
2 6 6 3 3 2 5 4 3 4 4 3 4 5 5 3 4 3 2 2 2 3 4 6 7 4 2 2 1 4 11 5 11 15 15 18 17 15 12 9 7 5 6 5 6 7 7 8 9 9 8 7 6 5 6 7 7 8 8 10 12 14 15 16 17 18 19 20 20 18 16 15 17 19 20 20 20 19 18 18 19 19 18 18 18 20
3 3 3 1 1 2 3 3 3 2 2 2 3 5 5 4 5 4 4 3 4 3 2 4 4 3 2 1 5 3 13 8 14 19 18 20 17 17 16 13 11 10 8 7 6 7 8 9 10 11 11 10 9 9 8 8 8 8 8 9 11 12 13 14 17 18 20 22 23 20 17 18 20 20 20 20 20 20 19 19 20 21 21 21 18 19
5 2 6 3 1 4 3 2 2 4 3 2 2 5 3 4 5 4 3 5 6 4 3 3 2 3 3 3 7 8 8 1 18 22 20 20 18 18 17 16 15 13 12 10 9 9 9 11 12 12 12 12 12 11 10 10 10 10 10 11 12 13 13 15 17 18 19 22 25 24 18 16 19 20 20 20 21 21 21 21 21 21 22 22 19 17
4 2 6 3 3 4 3 2 4 4 2 1 3 2 2 3 8 7 3 3 5 6 3 2 3 4 3 4 5 1 4 7 17 17 18 19 21 22 19 18 17 15 15 14 13 12 12 13 14 14 13 13 13 13 12 12 11 11 11 12 13 13 14 15 16 17 19 20 24 27 21 16 17 18 19 19 19 20 21 21 22 22 22 22 21 19
3 1 6 2 3 1 1 5 8 7 4 4 2 1 2 3 6 6 4 3 4 5 2 2 3 3 1 4 3 4 3 10 9 11 15 15 20 21 16 15 16 15 14 13 13 14 13 15 17 17 16 15 15 15 16 16 14 13 12 13 14 14 14 14 15 16 18 19 22 25 22 18 17 17 18 19 18 18 19 20 20 22 22 22 22 21
4 2 6 4 1 2 5 7 6 10 8 5 3 2 3 3 3 3 3 3 4 4 2 3 2 2 2 4 4 1 4 8 6 8 11 12 17 18 14 15 16 14 13 12 13 13 13 16 17 17 16 16 17 17 17 18 17 17 15 15 15 14 13 13 13 14 15 17 18 20 20 19 18 18 18 19 18 18 18 19 19 21 22 21 21 21
3 4 3 6 4 3 6 5 2 5 7 6 4 3 3 3 4 2 2 4 5 4 3 2 3 2 0 3 8 7 6 8 8 6 8 14 20 21 21 23 23 21 18 15 14 13 12 14 14 13 13 15 16 17 17 17 17 18 18 19 19 18 16 15 14 14 14 15 16 16 17 18 17 17 17 17 18 18 18 18 19 20 20 21 22 22
3 4 0 6 6 4 3 1 3 2 2 5 5 5 3 2 2 2 3 3 4 5 4 3 3 2 2 0 5 9 8 8 11 9 11 19 23 23 24 25 25 24 22 20 19 18 17 17 14 11 11 12 15 16 16 16 17 18 19 21 22 21 19 18 16 16 17 18 18 17 17 17 16 15 14 14 15 16 16 17 18 19 20 20 22 23
2 2 2 2 4 4 1 2 3 5 5 5 3 2 0 2 3 4 4 3 2 5 4 5 5 1 2 4 1 5 10 11 14 16 16 21 24 23 23 23 22 22 21 20 20 20 21 21 19 16 13 12 14 16 17 16 16 18 20 23 23 21 21 20 19 20 21 22 22 21 20 19 18 16 14 12 12 13 14 15 16 17 18 18 19 21
1 3 4 1 0 2 1 4 8 9 9 7 4 2 2 3 4 4 3 1 3 5 3 5 5 4 3 5 4 4 12 15 17 21 20 22 24 23 22 21 19 19 18 18 17 17 18 18 19 19 16 14 13 14 14 14 14 16 19 22 22 21 20 19 19 20 22 24 24 25 24 22 20 19 17 15 14 13 14 14 15 15 16 16 17 18
1 3 3 2 3 3 4 7 9 8 8 7 4 2 3 3 3 5 5 4 4 4 2 4 4 2 1 3 8 7 16 18 19 23 23 22 23 23 22 19 17 17 17 17 16 16 15 15 15 17 18 18 15 12 10 10 11 14 16 19 20 19 19 18 19 21 22 24 25 25 26 26 24 22 20 18 17 15 14 14 14 15 15 15 16 17
1 1 3 3 3 5 6 7 7 7 5 4 2 3 5 5 5 6 4 4 4 2 2 5 4 1 2 4 7 11 17 16 17 21 23 24 24 22 20 17 16 16 17 18 17 17 17 16 15 16 18 19 18 17 16 12 10 11 14 17 18 18 19 19 21 22 23 23 23 24 25 26 27 26 24 23 20 18 16 15 14 15 16 16 16 16
2 2 3 5 3 2 1 1 1 2 2 2 3 6 7 6 6 6 3 5 5 2 3 5 6 4 1 3 7 10 11 12 16 20 22 24 22 19 17 15 16 17 18 19 19 19 19 18 18 18 19 17 17 20 22 20 14 9 11 16 16 16 19 20 21 21 22 22 22 23 24 25 26 27 26 25 24 22 20 17 15 14 15 15 16 16
4 2 3 6 6 6 6 5 4 3 4 4 6 8 8 6 7 7 4 4 5 4 5 4 7 8 5 5 7 7 8 10 14 19 21 20 18 16 17 18 19 21 20 19 20 20 18 18 18 19 20 18 18 20 22 22 18 13 13 16 15 14 16 18 19 20 20 19 20 22 23 24 26 27 26 25 24 23 23 21 18 16 15 15 15 16
4 3 2 6 4 5 6 2 2 7 8 7 8 8 8 7 8 8 7 7 8 9 5 2 6 10 6 5 8 7 8 10 12 17 17 16 15 17 20 23 23 22 21 20 20 18 16 16 16 18 18 18 17 19 20 21 20 17 16 16 16 15 15 16 18 19 19 17 18 20 21 23 25 26 27 26 23 22 22 23 22 20 17 16 16 17
6 2 1 4 3 2 5 9 11 11 8 8 9 9 8 9 10 10 8 7 6 8 7 7 8 10 6 5 7 7 10 13 13 15 15 15 18 22 24 24 23 22 21 20 19 17 16 15 15 15 16 16 15 16 18 20 19 18 17 16 16 17 17 17 18 18 18 16 17 19 21 22 24 26 27 26 24 23 22 22 23 22 20 19 17 17
4 0 1 3 5 6 9 12 13 12 9 9 10 10 10 10 10 10 8 6 8 10 9 9 11 9 5 6 8 11 16 19 18 20 21 21 23 25 25 25 24 23 22 20 19 17 16 15 14 13 13 14 15 15 16 18 18 17 17 15 15 16 17 17 17 16 17 16 15 17 20 22 23 24 25 25 24 23 23 23 23 22 21 21 20 18
3 1 1 4 5 6 7 11 12 12 12 10 8 9 12 12 11 11 10 10 11 10 8 10 12 6 2 7 13 16 20 22 21 23 24 24 25 25 25 25 25 25 23 21 19 17 15 15 15 15 14 15 15 15 15 16 16 16 16 16 15 15 15 15 16 17 18 17 15 17 21 22 23 24 25 26 25 24 24 24 23 23 22 21 20 20
3 2 1 5 6 3 5 11 12 12 12 10 6 6 9 10 8 7 7 7 9 11 10 10 9 4 5 9 15 17 21 22 21 22 24 25 25 24 24 25 25 25 23 21 19 17 16 16 16 17 16 15 14 13 13 13 13 15 17 18 17 16 15 15 16 18 20 18 16 18 20 20 21 22 24 26 26 25 25 25 24 24 24 23 23 21
2 4 1 4 6 2 3 9 10 9 9 6 0 4 6 8 8 7 5 5 9 12 10 7 6 7 9 12 12 12 16 19 19 21 24 25 24 23 23 24 25 24 23 21 19 18 15 14 14 14 15 14 14 13 12 12 12 14 16 16 15 15 15 15 15 16 18 18 18 18 19 19 19 21 22 23 23 23 24 25 25 25 25 25 25 24
3 4 3 2 5 4 4 1 5 6 4 1 5 5 6 8 11 10 6 6 6 5 5 6 8 9 12 13 12 11 15 18 18 21 24 24 23 23 22 21 22 22 21 20 18 18 16 14 13 12 12 12 12 12 12 12 12 12 12 13 12 12 14 16 16 16 17 18 22 24 23 23 23 23 23 23 22 22 22 24 26 26 27 26 24 25
3 4 2 2 4 4 1 4 7 3 3 5 3 1 6 10 13 11 6 3 4 6 9 11 10 11 13 16 19 21 24 24 24 24 23 21 21 20 19 19 17 17 18 18 16 16 16 15 14 12 12 11 11 12 12 13 13 12 12 13 13 12 13 15 16 18 18 18 20 24 24 25 27 27 24 21 21 21 21 23 25 26 27 26 22 23
5 3 2 2 3 3 2 4 4 3 4 1 5 6 9 11 12 11 7 3 2 8 12 11 10 14 18 21 25 28 30 30 28 25 23 20 18 17 17 16 15 14 14 15 14 14 15 16 15 13 12 12 12 14 15 14 14 14 14 14 15 14 14 15 16 19 20 18 18 21 22 24 27 26 22 20 21 21 20 22 24 25 27 24 20 22
6 4 2 3 2 3 4 3 1 1 0 2 3 4 4 4 8 10 6 0 2 5 11 11 10 16 22 25 27 30 31 29 23 19 21 21 17 16 16 15 14 13 11 11 12 12 12 13 12 11 12 12 13 14 16 15 13 13 13 14 15 15 15 16 17 18 19 18 19 21 22 23 25 24 22 22 22 22 22 22 23 25 24 21 19 21
5 4 4 4 2 3 5 3 2 1 1 4 6 6 5 8 13 13 9 1 4 2 15 18 16 20 25 25 26 28 26 18 9 9 19 21 17 16 15 13 12 11 11 11 12 11 10 10 10 10 11 12 13 15 16 15 13 12 13 15 15 16 15 16 17 18 20 20 21 23 23 22 23 24 23 22 22 23 24 23 23 24 22 17 17 20
6 4 5 6 3 2 5 4 3 3 3 6 7 4 6 18 20 14 8 1 3 7 21 24 21 24 26 24 24 22 16 7 1 8 17 19 16 14 12 11 10 10 11 12 13 12 10 8 8 9 11 14 16 16 14 13 13 14 16 16 16 16 17 19 20 21 23 24 24 25 24 23 23 23 22 22 22 23 25 24 22 23 21 16 15 18
5 5 4 5 3 2 4 3 2 3 3 5 7 6 15 21 18 11 4 4 5 14 25 26 24 25 25 23 21 15 9 7 9 13 16 14 12 10 9 9 8 8 9 11 12 12 9 8 8 11 15 16 16 15 13 13 14 15 15 16 15 16 18 20 22 24 25 25 24 23 21 21 21 21 21 23 23 24 25 24 22 23 21 17 15 16
3 3 3 5 3 3 5 3 1 3 3 5 7 11 16 14 8 4 3 8 12 19 24 28 28 27 25 23 19 14 13 17 20 18 15 10 9 9 8 7 6 6 8 10 11 10 9 8 9 13 16 16 14 13 13 14 15 14 14 14 14 16 18 20 22 24 24 23 22 21 20 19 19 20 22 23 23 23 22 21 21 22 22 19 16 15
2 1 1 3 3 3 3 3 1 3 4 6 8 11 13 8 1 3 7 15 23 25 25 29 30 27 26 25 24 24 24 23 21 18 14 10 10 10 8 5 4 5 7 9 9 8 8 8 10 14 15 14 13 13 13 13 14 13 13 14 15 17 19 21 23 25 25 24 23 22 21 20 18 18 20 20 20 19 18 18 19 20 20 19 18 17
4 3 1 1 3 3 3 3 3 2 6 10 11 7 5 3 6 13 19 23 27 28 29 30 30 29 29 29 29 28 26 22 19 17 15 13 11 9 7 5 6 7 8 9 8 8 7 9 13 15 13 12 12 12 12 14 14 12 11 14 17 18 20 22 25 27 28 27 26 24 23 21 18 16 16 16 16 16 16 16 17 19 20 20 21 20
2 3 2 3 2 3 2 2 4 3 6 14 11 4 3 8 18 29 31 26 26 30 30 30 30 29 29 30 30 27 25 23 21 18 16 14 10 9 8 7 8 8 8 8 8 7 8 11 14 13 11 11 12 12 13 15 15 12 12 15 17 19 21 24 26 28 28 27 27 25 24 21 17 14 13 14 14 16 17 17 17 18 20 21 23 23
4 6 7 4 2 3 4 5 4 3 8 11 9 8 14 21 26 32 32 29 30 30 28 30 31 28 27 29 29 27 25 24 20 16 14 12 9 8 8 8 9 8 8 8 7 7 9 12 14 12 11 11 12 13 15 16 14 13 14 17 19 21 24 26 27 27 27 27 26 25 23 20 17 14 12 13 14 16 18 20 20 20 21 22 23 24
5 11 11 6 2 3 5 4 6 12 15 14 14 17 22 26 27 28 28 29 29 28 28 29 29 27 26 25 24 24 22 19 17 14 11 10 8 7 7 8 8 7 6 7 7 7 10 12 13 11 11 11 13 15 15 14 13 14 16 18 20 22 25 27 27 27 26 26 25 24 23 21 18 15 13 13 14 15 18 20 22 22 23 23 22 23
5 8 7 5 4 3 2 1 7 15 19 19 20 20 22 24 26 26 26 27 27 28 28 28 27 25 23 20 20 22 19 15 13 12 9 7 6 5 6 7 6 6 5 6 7 8 11 13 12 10 11 12 14 15 14 13 14 16 18 20 22 24 27 28 27 26 26 25 25 24 22 21 19 18 17 16 16 17 18 19 21 22 23 24 23 22
5 5 4 4 3 3 3 6 12 19 21 21 22 22 24 26 27 26 26 27 26 27 26 24 23 21 19 17 18 19 17 13 10 9 8 6 4 4 5 5 6 5 5 5 7 9 12 12 10 9 11 12 13 13 14 14 16 19 21 23 25 27 29 28 26 25 25 25 24 23 22 21 21 21 21 20 19 19 19 19 20 20 19 20 20 20
8 8 5 5 5 4 3 8 15 16 13 16 22 25 27 29 29 27 27 26 25 25 24 22 19 17 16 16 16 16 15 12 9 7 6 6 5 5 6 6 5 4 4 5 8 11 11 10 9 9 10 11 12 13 14 16 19 21 23 26 29 30 30 27 24 24 24 25 24 23 22 22 23 23 23 23 21 19 18 16 17 17 16 14 14 15
9 6 4 7 7 3 4 15 20 11 6 15 26 29 28 29 29 28 27 24 23 22 21 21 19 16 15 15 13 12 12 11 8 6 6 6 6 6 6 5 4 3 4 6 8 11 10 9 8 9 10 11 12 13 15 18 21 23 26 29 31 30 28 25 23 23 24 24 25 24 23 23 23 22 22 22 22 21 18 14 12 13 15 16 14 13
12 14 13 10 7 7 15 31 32 18 15 26 31 30 29 29 27 27 26 23 22 21 19 19 20 18 16 13 10 8 9 10 9 7 6 7 6 5 5 4 2 3 4 6 9 10 10 8 6 8 10 11 12 13 16 19 21 25 28 30 30 28 26 25 24 23 24 24 24 25 24 23 22 22 21 21 21 22 21 19 15 12 13 16 16 14
Wind_Direction
168 104 181 208 193 189 183 192 195 171 154 140 114 112 137 141 143 149 106 116 126 105 98 130 129 150 174 199 213 202 203 219 200 197 204 198 200 198 195 182 154 140 152 163 164 156 142 146 162 166 159 163 172 170 171 174 174 181 181 175 168 119 100 85 69 53 40 31 19 16 16 2 350 342 343 355 357 357 9 18 20 15 3 1 7 12
136 107 207 224 217 192 174 205 207 142 145 125 105 124 137 143 157 137 131 139 122 97 112 130 117 135 165 181 194 181 186 218 200 196 207 203 202 203 200 186 173 163 164 167 168 161 141 144 157 164 164 167 173 170 169 176 185 191 193 194 171 117 93 72 58 47 30 7 352 352 350 337 331 333 338 347 351 3 25 30 28 27 21 5 355 4
45 99 233 227 220 201 149 193 207 136 125 110 106 130 140 162 143 91 115 137 113 104 124 117 107 124 159 161 177 179 186 209 201 191 191 192 193 197 196 188 185 182 178 173 171 171 145 139 149 155 164 169 171 173 176 182 191 198 208 219 177 116 66 52 39 14 359 339 332 335 337 327 322 330 336 339 344 2 18 23 20 20 24 21 359 347
50 246 242 220 200 214 111 174 188 109 102 129 128 127 155 180 130 97 140 138 123 121 123 110 94 85 86 82 178 197 193 198 204 199 188 187 185 183 185 184 182 183 184 182 179 182 172 165 163 159 165 173 178 182 184 190 203 215 230 254 195 145 52 25 335 313 317 315 316 319 323 320 317 325 329 332 345 1 8 11 8 4 13 21 14 354
212 242 234 162 100 101 46 105 141 108 110 168 148 132 162 175 134 135 140 118 78 89 120 108 69 15 3 38 64 171 159 159 179 188 188 191 186 177 181 183 182 184 183 183 187 189 188 187 178 171 176 181 188 194 197 210 225 231 241 306 305 214 284 318 301 302 304 306 307 303 302 304 308 315 321 329 348 1 359 359 358 353 359 8 11 3
235 281 27 36 27 80 104 60 95 120 115 159 170 157 158 144 125 126 125 112 81 103 153 115 80 336 324 354 49 88 96 104 142 163 175 188 186 180 183 183 181 183 186 190 196 199 200 199 186 183 190 193 199 205 214 230 235 234 241 292 307 283 299 314 310 302 294 290 294 295 293 291 298 307 319 329 342 351 347 345 345 342 349 354 357 1
298 18 34 34 40 65 90 91 168 123 103 94 176 164 149 133 138 134 125 111 112 161 212 84 107 177 323 339 326 10 115 96 109 144 162 177 181 183 183 182 182 181 183 190 201 211 214 218 210 198 198 204 210 213 224 240 239 235 243 278 295 287 288 292 295 293 286 284 286 290 289 287 296 307 318 324 329 336 333 329 328 328 336 340 341 349
39 38 32 35 61 63 65 80 201 125 105 107 162 154 146 140 145 138 116 103 138 149 34 44 104 116 27 340 320 324 116 98 86 136 159 171 179 188 189 185 187 189 188 189 195 209 220 234 237 232 221 222 220 218 227 237 235 229 236 268 287 282 277 280 289 291 287 282 275 271 272 279 293 301 306 311 317 324 321 315 317 323 328 329 329 332
355 65 61 55 61 62 80 226 220 103 99 224 150 142 147 140 136 124 107 99 90 92 83 76 98 85 40 326 324 340 87 94 104 156 165 168 175 187 191 189 190 194 199 197 181 212 259 266 263 264 254 249 245 238 243 248 240 231 233 255 279 280 275 280 288 287 283 274 264 262 265 270 280 285 290 297 306 312 309 304 310 322 325 322 322 324
188 113 123 107 79 55 239 252 224 105 118 193 107 110 116 113 120 113 106 109 65 78 136 176 103 94 99 311 326 358 66 118 156 128 141 155 164 174 179 183 187 197 207 209 356 13 12 346 298 281 266 257 259 265 273 272 259 248 246 253 266 270 262 269 279 277 273 269 265 268 269 270 273 271 274 281 291 300 300 300 304 313 317 316 319 322
116 117 121 107 92 212 214 293 286 122 172 117 86 80 79 68 77 83 77 95 75 49 234 211 107 103 118 253 277 353 19 217 156 86 84 129 148 160 153 150 170 184 183 184 21 26 24 9 339 301 277 268 272 278 280 280 279 277 272 269 272 275 266 265 273 278 279 273 269 272 273 274 273 266 262 265 275 286 292 296 299 304 308 309 313 317
357 50 37 67 15 29 53 355 360 38 25 79 84 86 100 51 23 37 6 39 77 52 277 119 90 78 85 64 312 321 312 276 158 125 114 118 132 149 146 134 117 73 79 86 46 37 34 31 20 358 322 298 300 300 295 293 291 290 289 284 283 286 284 277 278 284 286 279 274 276 277 278 279 274 265 262 269 276 285 293 298 301 303 304 308 311
345 331 306 2 25 45 64 12 348 12 25 78 97 93 107 72 26 39 11 28 96 128 74 98 89 69 79 67 340 318 316 284 150 133 122 109 102 111 123 127 113 77 73 75 55 39 33 38 34 26 19 349 335 330 323 323 316 305 298 293 289 290 292 291 290 290 289 287 285 281 276 275 275 273 269 267 268 269 275 282 287 291 296 301 304 305
344 322 328 17 353 8 91 70 353 342 4 65 123 121 117 110 83 90 89 69 119 129 105 96 86 72 73 67 219 299 317 300 134 119 110 104 97 97 101 109 111 93 86 76 55 49 43 42 43 40 39 33 24 14 355 346 340 328 312 303 298 296 295 294 293 293 293 292 287 283 284 284 279 274 274 275 275 276 277 279 280 283 287 291 297 300
95 323 308 103 307 349 93 124 158 167 12 26 156 127 118 146 136 140 156 143 144 147 106 69 68 107 118 214 151 142 301 288 115 105 102 101 97 97 95 94 95 90 90 85 69 65 59 55 54 47 43 41 37 30 22 11 1 351 338 326 318 315 313 308 304 301 299 296 290 288 292 293 289 285 282 279 280 284 286 284 282 282 282 284 289 296
108 233 261 241 196 92 79 299 123 104 37 351 105 84 87 163 139 124 140 144 136 112 25 22 60 107 95 64 106 141 246 243 95 96 97 95 93 91 85 85 88 85 79 76 74 72 65 59 53 46 44 43 40 35 28 19 9 0 351 341 334 332 329 322 316 310 306 304 299 296 296 294 292 289 284 279 279 283 286 286 283 280 280 280 279 283
77 276 278 308 32 86 108 339 30 74 115 22 46 60 232 157 116 112 92 60 90 97 48 16 99 93 76 62 51 210 213 84 82 88 87 89 91 85 79 81 82 80 74 68 67 65 60 56 49 45 45 44 45 41 31 19 6 357 350 345 341 339 336 330 324 318 315 315 308 305 308 308 298 291 287 287 287 286 286 287 285 282 280 276 270 271
109 308 290 327 74 55 36 43 30 30 75 98 73 183 228 53 80 102 106 47 50 90 72 352 99 115 97 91 26 312 83 80 74 83 83 85 88 84 80 78 75 75 74 68 63 61 59 58 55 53 51 47 48 45 40 34 26 16 5 356 350 345 342 338 332 327 324 324 320 318 322 320 309 304 304 306 304 295 288 288 290 288 283 277 273 274
97 64 295 308 87 332 4 49 28 1 30 91 148 149 103 79 72 66 99 122 98 104 105 357 40 75 75 119 136 230 104 95 90 90 89 80 77 78 77 74 72 72 73 71 65 62 61 61 60 59 55 52 53 51 49 46 40 36 28 17 9 1 356 351 344 338 333 332 332 331 330 325 317 314 311 310 308 299 290 289 292 291 284 278 276 274
78 99 281 310 334 354 15 47 54 338 6 43 37 23 56 120 138 115 106 131 128 131 130 59 23 21 347 161 151 153 140 122 117 104 92 83 79 81 82 78 77 76 75 74 69 66 62 57 59 64 60 55 53 48 44 41 37 34 29 23 18 12 8 5 357 351 346 344 344 341 337 333 327 319 310 308 306 301 295 290 289 289 285 279 276 274
52 85 182 308 332 27 36 25 153 150 48 50 41 19 360 12 81 91 72 88 124 133 141 119 76 31 355 37 149 150 147 135 126 116 98 91 88 88 87 85 82 81 79 76 74 73 68 61 60 69 74 65 52 42 39 36 30 26 22 18 16 13 13 13 9 8 6 3 359 353 347 343 340 333 320 310 305 303 298 291 288 289 287 282 279 278
60 96 111 330 5 66 100 256 141 118 101 103 98 68 115 118 94 84 58 9 75 113 144 134 109 313 346 39 320 166 140 132 123 114 104 97 95 92 89 88 86 84 81 77 74 71 67 64 62 63 65 60 46 40 39 34 27 22 18 17 15 13 16 17 19 21 21 19 15 10 5 357 352 348 341 328 315 308 301 294 293 292 289 288 287 283
135 104 89 48 49 150 184 41 66 78 85 88 79 89 126 102 92 115 128 127 75 90 109 99 93 294 345 72 282 223 133 129 120 113 107 102 100 96 92 89 86 82 77 72 68 63 60 58 57 58 56 50 40 35 34 30 25 20 17 17 16 14 16 19 24 26 25 24 22 20 18 13 6 0 354 348 337 326 315 305 301 298 292 292 293 289
50 76 69 346 305 308 344 29 42 42 64 70 37 49 90 66 83 121 135 136 107 108 126 87 82 286 319 163 227 182 125 123 118 113 109 104 102 100 96 92 85 80 74 69 65 59 53 47 46 50 51 49 48 43 35 24 16 16 19 21 21 20 22 24 27 28 27 27 25 23 22 21 18 14 7 0 351 340 330 318 307 301 296 294 293 293
30 77 82 67 8 354 354 6 16 13 43 80 30 31 67 77 89 89 80 80 68 49 136 107 106 220 245 199 177 127 114 112 107 108 109 107 105 102 98 92 85 82 78 74 67 56 50 46 44 45 44 46 50 50 48 39 21 12 20 26 27 31 36 36 33 31 29 27 25 22 22 21 20 19 16 12 5 355 346 333 320 310 303 298 295 292
111 132 110 112 121 123 109 303 79 65 36 46 24 31 44 55 83 98 85 77 72 18 44 99 129 161 189 115 105 100 101 95 93 102 108 108 106 102 97 90 85 84 81 73 61 52 52 53 50 46 45 47 49 46 46 47 43 29 26 33 35 37 39 39 35 32 29 25 21 19 19 18 16 15 13 13 12 7 360 350 336 323 311 303 297 290
98 70 98 131 151 170 179 216 213 132 85 68 53 44 42 49 83 102 95 92 121 104 56 79 131 130 120 98 94 93 95 96 102 108 110 110 109 102 94 89 86 83 77 66 56 53 55 55 51 48 49 50 47 41 43 49 52 50 45 45 45 41 40 39 36 33 30 23 17 14 13 14 12 10 7 7 8 8 5 359 350 336 322 310 298 290
87 48 96 125 143 194 183 170 87 92 96 98 83 62 56 63 77 91 109 135 136 109 93 202 133 115 124 125 111 109 106 108 113 115 116 116 110 102 95 91 87 80 70 63 59 57 57 55 50 47 46 45 41 36 39 49 57 59 56 51 47 42 39 36 30 26 25 21 15 11 10 9 6 3 2 360 359 2 3 2 358 349 336 321 305 292
104 105 192 111 77 89 112 97 90 93 95 90 90 86 76 78 85 92 114 149 136 110 146 183 134 115 135 139 121 124 120 114 111 109 108 106 103 101 96 88 80 74 69 68 67 65 61 57 50 44 40 37 36 34 36 45 55 59 58 52 45 40 36 32 25 19 17 16 12 7 6 6 1 358 359 357 353 356 359 359 359 356 349 339 325 308
103 157 252 102 73 59 85 103 102 98 94 82 84 91 84 81 91 95 105 119 104 106 133 139 116 114 142 142 129 123 114 109 103 97 95 97 99 98 91 82 76 74 73 74 73 69 63 57 52 49 42 39 39 38 36 40 44 47 48 44 37 33 30 27 23 19 17 16 13 8 5 5 2 359 359 357 352 351 356 357 356 357 355 350 344 336
79 194 236 94 73 43 69 98 99 97 101 93 80 88 90 86 88 96 107 109 99 103 120 117 110 113 173 138 123 115 110 105 99 94 93 98 103 98 89 82 78 75 75 76 75 71 66 61 56 55 53 49 46 42 36 33 29 26 24 22 19 17 15 14 17 18 17 17 19 18 15 12 7 1 360 0 356 351 354 357 358 359 359 357 353 350
76 120 353 66 78 60 88 102 101 96 92 79 70 98 104 100 103 113 127 131 127 128 124 114 115 153 202 144 117 109 108 105 101 99 100 105 107 101 92 84 79 78 77 77 75 71 67 62 56 54 54 50 43 37 29 20 12 6 3 2 2 2 359 2 9 13 14 17 20 18 15 10 3 356 354 358 359 355 354 358 1 1 1 1 359 355
110 106 87 89 93 116 151 124 113 95 74 55 49 166 127 108 113 120 120 131 138 135 135 143 157 176 171 142 117 106 106 104 104 106 108 111 109 101 94 87 81 79 79 77 74 71 66 60 53 51 50 48 42 35 25 13 6 2 358 353 350 352 355 358 4 9 10 11 9 5 3 0 356 351 347 349 353 353 353 356 358 357 356 357 359 358
71 93 130 124 109 157 216 128 73 64 67 235 238 207 155 126 125 127 129 145 152 142 135 140 147 162 160 142 129 119 108 103 104 110 114 116 112 103 96 90 83 79 76 74 71 67 61 55 48 40 38 40 39 38 34 27 23 15 6 358 353 350 349 350 357 4 6 2 357 353 350 348 347 346 342 338 340 344 347 349 350 350 350 351 354 356
66 82 119 87 112 153 264 28 59 62 245 249 277 133 127 118 115 109 94 114 137 120 116 125 145 162 153 135 126 117 107 102 103 108 113 113 111 107 99 91 86 79 71 66 64 61 55 48 40 32 27 23 19 20 20 18 18 14 6 5 5 358 345 338 343 354 360 1 356 349 343 338 339 342 341 336 337 340 345 347 348 348 347 347 351 354
114 112 109 75 105 127 50 58 98 218 252 354 54 98 110 98 99 94 63 27 114 127 130 141 156 150 134 125 121 114 108 102 98 102 109 108 104 103 98 91 87 79 68 59 56 55 50 43 38 31 23 13 4 4 6 6 8 5 358 358 3 2 353 342 341 348 355 360 359 352 344 338 338 341 343 344 344 345 348 350 351 349 346 344 350 355
126 123 96 69 83 120 113 90 51 349 98 86 103 154 147 126 132 124 106 273 254 151 137 135 137 136 130 125 121 117 111 101 89 92 108 109 103 98 93 87 79 71 61 51 47 45 41 39 37 28 18 10 2 360 1 0 1 0 358 358 0 360 356 352 350 350 353 355 355 352 348 343 340 339 340 345 350 351 351 350 350 350 348 346 352 359
106 123 136 117 68 92 106 88 47 53 210 219 230 252 241 166 143 122 111 146 293 144 131 127 133 141 137 131 128 122 112 99 79 99 113 110 105 100 91 82 71 59 50 43 35 31 27 25 25 21 14 11 8 3 358 357 360 6 9 7 2 0 1 1 357 353 352 350 348 346 344 341 339 335 333 339 348 352 353 351 350 352 356 356 354 359
58 62 101 105 83 93 106 111 154 187 226 228 234 246 153 140 129 105 95 178 272 137 131 130 139 147 144 142 141 130 110 97 164 137 121 113 107 102 93 85 75 55 43 38 31 30 25 10 10 14 8 7 8 6 5 7 8 12 14 12 7 5 6 5 359 352 348 343 339 337 336 334 332 331 330 334 341 346 349 351 350 353 0 4 356 357
36 26 61 96 102 106 103 109 190 212 231 231 225 180 142 136 122 91 78 237 204 145 137 136 143 149 147 146 144 132 119 147 159 140 129 122 111 104 97 88 76 53 36 28 27 32 24 4 9 13 8 11 15 15 18 17 13 13 16 14 12 9 7 2 353 347 344 341 338 335 332 330 329 329 332 335 335 336 342 348 350 352 358 2 355 353
42 28 80 123 124 101 100 111 232 254 240 218 197 164 145 133 112 90 201 199 165 145 138 136 140 148 149 146 139 130 133 143 142 135 132 125 113 110 104 88 74 51 27 16 17 26 21 13 15 10 9 19 25 23 23 16 11 14 16 14 13 9 3 355 347 344 346 348 348 343 336 331 328 326 328 333 334 333 336 345 353 357 359 2 1 356
143 50 70 108 117 113 107 112 126 280 250 197 168 152 142 134 178 212 166 149 145 143 138 135 137 142 143 138 132 129 131 134 133 131 130 124 118 117 110 91 70 40 21 18 22 28 28 20 11 7 15 27 25 20 18 10 5 9 10 12 14 6 356 351 346 345 345 346 347 347 344 339 333 328 328 332 338 339 336 339 349 355 357 0 5 6
161 137 126 165 145 116 69 83 114 256 223 175 153 141 144 169 169 146 133 133 139 140 136 135 136 136 133 130 128 130 131 131 131 129 126 124 122 116 105 80 56 40 33 35 36 34 30 18 8 10 22 29 19 13 9 2 359 1 4 10 10 360 351 348 346 343 342 341 344 348 350 348 344 337 334 337 343 346 341 337 340 347 351 353 357 2
149 140 180 218 170 123 112 177 201 232 187 169 162 152 155 161 150 142 136 134 138 139 136 135 135 135 134 130 129 131 132 131 131 130 126 123 119 109 94 67 50 47 46 45 42 33 20 9 6 13 23 22 13 6 359 355 353 351 358 4 360 349 344 344 343 340 340 341 343 347 350 351 348 342 340 342 342 343 343 343 342 343 346 347 349 353
210 162 140 132 156 148 153 195 201 112 126 154 162 141 138 145 149 148 143 138 138 142 142 138 137 138 138 134 131 131 132 132 132 130 127 121 112 98 78 54 49 55 55 48 41 26 11 5 4 10 19 17 8 359 354 351 346 347 358 358 349 343 344 344 343 341 339 341 343 345 347 347 343 339 338 339 338 338 342 345 345 344 343 342 344 348
157 131 111 102 148 106 77 99 116 104 111 127 134 137 143 147 151 152 146 140 141 145 146 143 142 143 142 141 136 130 129 131 128 125 123 117 106 86 55 43 52 65 61 49 35 16 4 1 1 8 18 13 360 352 349 346 345 352 356 351 345 346 347 345 343 342 341 342 343 344 345 343 340 339 334 328 327 330 335 339 340 340 340 340 341 345
148 130 97 101 140 111 70 150 121 110 117 126 129 137 146 150 155 157 150 142 140 142 144 144 144 144 145 146 142 133 132 135 131 125 122 116 100 63 36 47 70 80 63 42 24 4 356 357 2 14 18 5 352 347 346 345 350 353 351 347 348 350 348 346 346 344 341 342 344 344 344 343 341 340 336 331 328 326 328 331 333 335 339 341 342 344
183 159 108 90 100 106 168 170 129 118 128 136 138 144 146 146 150 152 146 141 138 137 140 143 145 148 147 146 145 140 138 142 142 136 130 118 88 54 59 87 103 92 58 25 4 354 354 1 13 22 13 357 347 344 345 350 354 351 348 349 350 348 347 348 349 345 341 342 344 344 343 343 342 340 338 338 337 334 332 332 332 335 342 348 348 347
152 144 134 114 104 92 119 137 122 110 118 136 142 146 149 150 149 145 142 143 140 136 137 139 143 150 150 148 149 147 140 137 141 141 131 114 89 82 96 110 109 80 35 9 357 353 359 14 23 15 4 354 346 344 348 354 354 349 347 348 348 347 348 350 350 346 342 343 345 344 344 343 341 339 338 336 336 336 335 336 336 335 336 340 343 346
131 133 126 110 121 144 186 163 152 141 154 160 153 149 152 155 153 148 147 149 146 144 143 139 137 141 146 149 154 152 142 137 142 147 138 116 99 101 111 111 96 54 11 354 350 355 11 32 26 5 359 357 352 350 353 354 350 346 346 347 348 349 350 350 350 347 344 343 344 344 344 343 340 339 338 335 334 333 330 329 330 330 329 327 325 330
157 162 161 151 163 200 190 175 169 166 165 163 158 155 158 160 158 154 154 155 155 157 158 153 147 145 144 148 158 162 151 147 151 154 138 114 105 113 117 107 67 18 355 343 348 6 30 41 16 355 359 0 355 354 354 350 346 345 345 347 349 352 352 350 349 348 346 346 345 345 345 345 343 341 340 338 337 336 333 327 322 318 323 328 325 322
Height
1516 1522 1525 1524 1524 1524 1524 1523 1522 1524 1526 1529 1535 1539 1541 1544 1546 1544 1544 1545 1543 1549 1556 1555 1557 1561 1561 1559 1557 1558 1560 1559 1559 1559 1559 1559 1559 1559 1559 1559 1560 1560 1560 1560 1561 1561 1562 1563 1562 1563 1564 1565 1566 1566 1567 1568 1569 1569 1569 1570 1570 1570 1570 1570 1570 1570 1569 1569 1569 1569 1568 1568 1568 1568 1568 1567 1567 1566 1564 1563 1562 1561 1561 1560 1559 1559
1516 1524 1525 1519 1517 1518 1521 1520 1519 1524 1527 1529 1537 1542 1544 1544 1544 1543 1544 1545 1543 1548 1557 1556 1558 1561 1559 1558 1558 1558 1559 1560 1559 1559 1559 1559 1560 1561 1560 1561 1561 1560 1561 1561 1561 1561 1562 1563 1563 1563 1564 1565 1566 1567 1568 1569 1569 1570 1570 1571 1571 1571 1571 1570 1570 1570 1570 1569 1569 1569 1569 1569 1569 1569 1568 1568 1567 1566 1565 1564 1563 1562 1562 1561 1560 1559
1521 1523 1519 1515 1513 1514 1519 1520 1519 1524 1528 1532 1538 1542 1546 1544 1543 1545 1544 1545 1544 1548 1557 1557 1560 1562 1559 1558 1559 1558 1559 1560 1560 1559 1559 1559 1560 1561 1561 1561 1561 1561 1562 1561 1562 1562 1562 1563 1564 1564 1565 1566 1567 1568 1569 1570 1570 1571 1571 1571 1571 1571 1571 1571 1571 1570 1570 1570 1569 1569 1569 1569 1569 1569 1568 1568 1567 1566 1565 1564 1564 1563 1562 1561 1560 1559
1525 1521 1514 1512 1512 1513 1518 1521 1521 1525 1530 1535 1537 1541 1546 1542 1544 1550 1548 1546 1546 1547 1554 1558 1561 1563 1562 1561 1560 1560 1560 1559 1561 1561 1560 1561 1561 1561 1562 1562 1563 1563 1563 1563 1563 1563 1563 1564 1565 1565 1566 1567 1568 1569 1570 1570 1571 1571 1572 1572 1572 1572 1572 1571 1571 1571 1571 1570 1570 1570 1570 1569 1569 1569 1569 1568 1568 1566 1565 1564 1564 1563 1562 1561 1560 1559
1522 1516 1511 1511 1513 1514 1517 1521 1522 1526 1533 1536 1534 1537 1542 1540 1542 1547 1546 1547 1549 1551 1552 1555 1566 1570 1566 1567 1564 1561 1561 1560 1562 1563 1563 1563 1563 1563 1563 1563 1564 1564 1564 1565 1564 1565 1565 1566 1566 1567 1568 1569 1569 1570 1571 1571 1572 1572 1572 1572 1572 1572 1572 1572 1572 1571 1571 1571 1571 1570 1570 1570 1570 1569 1569 1568 1568 1566 1565 1564 1564 1563 1562 1561 1560 1559
1519 1512 1511 1513 1515 1516 1519 1522 1522 1523 1531 1535 1533 1532 1534 1537 1540 1543 1544 1548 1557 1565 1556 1553 1574 1583 1570 1568 1568 1564 1562 1563 1564 1564 1564 1565 1564 1564 1565 1565 1565 1566 1566 1566 1566 1566 1567 1567 1568 1568 1569 1570 1570 1571 1572 1572 1572 1572 1573 1573 1573 1573 1573 1572 1572 1572 1572 1571 1571 1571 1570 1570 1570 1569 1568 1568 1567 1566 1565 1564 1563 1563 1561 1560 1560 1559
1517 1513 1513 1516 1517 1518 1520 1522 1521 1520 1526 1533 1532 1528 1529 1535 1540 1542 1544 1549 1561 1568 1557 1551 1572 1587 1578 1571 1570 1567 1566 1566 1566 1566 1566 1566 1566 1565 1566 1566 1566 1566 1567 1567 1567 1568 1568 1568 1569 1570 1570 1571 1571 1572 1572 1572 1573 1573 1573 1573 1573 1573 1573 1572 1572 1572 1572 1571 1571 1570 1570 1570 1569 1568 1568 1567 1566 1565 1565 1564 1563 1562 1561 1560 1560 1559
1517 1516 1516 1517 1518 1520 1521 1522 1519 1517 1523 1529 1527 1526 1529 1533 1539 1542 1544 1550 1556 1558 1558 1557 1564 1582 1586 1578 1572 1570 1569 1569 1568 1568 1567 1567 1567 1566 1566 1567 1567 1567 1568 1568 1568 1569 1569 1569 1570 1570 1571 1571 1572 1572 1572 1573 1573 1573 1573 1573 1573 1573 1572 1572 1572 1571 1571 1570 1570 1569 1569 1569 1568 1567 1567 1566 1565 1565 1564 1563 1563 1562 1561 1560 1559 1559
1517 1518 1519 1518 1519 1522 1522 1520 1516 1515 1522 1525 1522 1524 1528 1531 1538 1540 1544 1553 1555 1558 1569 1566 1562 1581 1593 1582 1575 1573 1572 1573 1571 1569 1569 1567 1567 1567 1567 1568 1568 1568 1569 1569 1570 1570 1570 1570 1571 1571 1572 1572 1572 1572 1573 1573 1573 1573 1573 1573 1572 1572 1572 1571 1571 1570 1570 1569 1569 1568 1568 1567 1567 1566 1565 1565 1564 1563 1563 1562 1562 1561 1560 1560 1559 1558
1516 1516 1516 1517 1520 1522 1520 1518 1515 1515 1520 1520 1521 1525 1528 1533 1537 1539 1547 1554 1557 1565 1575 1569 1563 1583 1598 1588 1579 1577 1574 1575 1573 1570 1570 1569 1568 1569 1568 1569 1569 1569 1570 1570 1571 1571 1571 1571 1571 1572 1572 1572 1572 1572 1573 1573 1573 1572 1572 1572 1572 1571 1571 1570 1570 1569 1568 1568 1567 1567 1566 1566 1565 1564 1563 1563 1562 1562 1561 1561 1560 1560 1559 1559 1558 1558
1515 1514 1514 1515 1518 1518 1516 1516 1515 1516 1517 1516 1522 1529 1532 1537 1539 1543 1550 1551 1561 1574 1574 1567 1563 1575 1593 1592 1582 1578 1575 1574 1573 1572 1571 1570 1570 1570 1570 1570 1571 1571 1571 1572 1572 1572 1572 1572 1572 1572 1572 1572 1572 1572 1573 1572 1572 1572 1572 1572 1571 1571 1570 1569 1569 1568 1567 1567 1566 1566 1565 1564 1564 1563 1562 1560 1559 1559 1559 1558 1558 1558 1558 1558 1557 1557
1517 1517 1517 1515 1515 1515 1515 1517 1516 1516 1516 1517 1525 1532 1539 1546 1547 1551 1556 1556 1572 1583 1573 1566 1566 1573 1592 1596 1584 1578 1575 1573 1572 1572 1572 1572 1572 1572 1572 1573 1572 1573 1573 1573 1574 1573 1573 1573 1572 1572 1572 1572 1573 1573 1573 1572 1572 1572 1571 1571 1570 1570 1570 1569 1568 1567 1567 1566 1566 1565 1565 1564 1563 1561 1560 1558 1557 1556 1556 1556 1556 1556 1556 1556 1556 1556
1522 1521 1519 1516 1516 1515 1518 1522 1521 1519 1519 1521 1527 1534 1545 1555 1559 1567 1571 1571 1580 1581 1571 1567 1568 1580 1596 1596 1586 1580 1577 1576 1573 1572 1572 1572 1573 1574 1574 1574 1574 1575 1575 1575 1575 1574 1574 1574 1573 1573 1573 1573 1573 1573 1573 1572 1572 1571 1570 1570 1569 1569 1569 1568 1567 1567 1566 1565 1565 1564 1563 1563 1562 1560 1558 1557 1555 1555 1554 1554 1554 1554 1554 1554 1554 1554
1531 1527 1520 1520 1519 1516 1519 1526 1528 1526 1524 1525 1528 1533 1544 1556 1569 1582 1584 1583 1585 1579 1572 1567 1570 1586 1596 1592 1587 1584 1583 1581 1575 1573 1575 1574 1574 1575 1575 1576 1576 1576 1576 1576 1576 1575 1575 1575 1574 1574 1574 1573 1573 1573 1573 1572 1571 1571 1570 1569 1569 1568 1568 1567 1566 1565 1564 1563 1562 1561 1561 1561 1560 1558 1557 1556 1555 1555 1554 1553 1553 1552 1552 1552 1552 1552
1542 1540 1527 1523 1523 1518 1519 1523 1525 1526 1524 1525 1525 1527 1535 1543 1558 1574 1577 1580 1584 1580 1575 1572 1578 1591 1595 1591 1589 1586 1586 1584 1578 1576 1577 1576 1576 1576 1577 1577 1577 1577 1578 1577 1577 1576 1576 1576 1575 1575 1574 1574 1574 1573 1573 1572 1571 1570 1570 1569 1568 1568 1567 1566 1565 1564 1562 1560 1558 1558 1559 1559 1558 1557 1557 1555 1554 1554 1554 1553 1552 1551 1551 1550 1550 1551
1541 1540 1526 1520 1520 1517 1520 1519 1517 1522 1527 1527 1524 1527 1533 1533 1541 1559 1569 1571 1575 1582 1584 1583 1586 1590 1589 1588 1587 1587 1588 1584 1580 1579 1578 1578 1578 1577 1578 1579 1579 1579 1579 1578 1578 1578 1577 1577 1576 1576 1575 1575 1574 1574 1573 1572 1571 1570 1570 1569 1568 1567 1567 1566 1564 1562 1560 1558 1556 1555 1557 1558 1557 1556 1555 1553 1552 1552 1551 1551 1550 1549 1549 1548 1548 1550
1539 1538 1525 1520 1520 1516 1518 1518 1515 1521 1528 1528 1529 1532 1533 1530 1534 1554 1572 1572 1573 1588 1594 1590 1591 1591 1591 1593 1591 1590 1588 1583 1581 1581 1580 1580 1579 1578 1580 1581 1581 1581 1580 1580 1579 1579 1579 1578 1577 1577 1576 1576 1575 1574 1574 1573 1572 1571 1569 1569 1568 1567 1566 1565 1562 1560 1558 1557 1555 1554 1555 1557 1555 1553 1552 1550 1550 1549 1548 1548 1547 1547 1547 1545 1545 1547
1537 1537 1527 1522 1523 1519 1516 1518 1517 1517 1522 1528 1533 1533 1530 1531 1534 1547 1569 1578 1583 1595 1597 1592 1594 1594 1595 1600 1597 1592 1588 1584 1584 1583 1582 1583 1580 1580 1582 1582 1583 1583 1582 1582 1581 1580 1580 1579 1579 1578 1577 1577 1576 1575 1575 1573 1572 1571 1570 1569 1567 1566 1565 1563 1561 1559 1557 1556 1554 1553 1552 1552 1551 1550 1549 1548 1547 1546 1545 1545 1545 1544 1544 1543 1542 1543
1532 1539 1534 1524 1525 1522 1516 1520 1525 1522 1520 1524 1528 1527 1529 1539 1545 1548 1562 1577 1587 1600 1601 1595 1595 1593 1593 1597 1597 1594 1590 1586 1586 1585 1584 1584 1582 1583 1584 1584 1584 1583 1583 1583 1582 1582 1582 1581 1581 1580 1579 1578 1577 1577 1575 1574 1573 1571 1570 1569 1567 1565 1564 1562 1560 1558 1556 1554 1553 1552 1550 1548 1548 1547 1546 1545 1545 1544 1542 1542 1542 1541 1541 1540 1540 1540
1531 1540 1541 1529 1524 1525 1522 1527 1535 1533 1525 1523 1525 1526 1529 1537 1544 1548 1556 1567 1579 1596 1602 1599 1598 1596 1591 1590 1590 1591 1589 1586 1586 1586 1584 1584 1583 1585 1586 1585 1585 1584 1584 1584 1583 1583 1582 1582 1582 1581 1581 1580 1578 1578 1576 1575 1574 1572 1571 1569 1567 1566 1563 1561 1559 1557 1555 1554 1552 1551 1549 1547 1546 1545 1544 1543 1542 1541 1540 1540 1539 1538 1538 1537 1537 1537
1531 1539 1544 1535 1527 1530 1533 1535 1536 1535 1532 1531 1533 1536 1536 1536 1540 1547 1554 1559 1568 1584 1596 1600 1605 1600 1589 1586 1587 1587 1586 1585 1584 1584 1584 1584 1585 1586 1587 1587 1586 1586 1585 1585 1584 1584 1583 1583 1582 1581 1581 1580 1579 1578 1577 1576 1575 1573 1571 1570 1567 1566 1563 1561 1559 1557 1555 1553 1551 1550 1548 1546 1544 1543 1542 1541 1540 1539 1538 1537 1536 1536 1536 1535 1535 1535
1533 1538 1543 1541 1537 1539 1539 1534 1531 1531 1532 1534 1538 1541 1542 1540 1542 1552 1564 1565 1564 1575 1587 1595 1605 1602 1589 1588 1589 1586 1584 1584 1583 1583 1584 1585 1586 1587 1588 1587 1588 1587 1587 1587 1586 1585 1584 1583 1583 1582 1581 1581 1580 1579 1577 1576 1575 1573 1572 1570 1568 1566 1563 1561 1559 1557 1555 1553 1551 1549 1547 1545 1544 1542 1541 1540 1539 1538 1536 1535 1534 1533 1533 1533 1533 1533
1532 1537 1542 1544 1544 1542 1538 1532 1530 1531 1530 1532 1537 1540 1541 1542 1543 1553 1569 1572 1570 1578 1583 1588 1602 1603 1590 1588 1591 1587 1585 1584 1584 1584 1584 1586 1587 1588 1588 1588 1589 1588 1588 1588 1587 1586 1586 1585 1584 1583 1582 1581 1580 1579 1578 1577 1575 1574 1572 1570 1568 1566 1564 1562 1560 1558 1556 1554 1551 1549 1547 1545 1543 1541 1540 1539 1537 1536 1534 1533 1532 1531 1531 1531 1531 1531
1532 1539 1544 1546 1545 1539 1534 1531 1530 1530 1531 1536 1541 1539 1540 1543 1544 1549 1559 1565 1572 1583 1583 1589 1606 1605 1591 1589 1591 1588 1585 1585 1585 1585 1585 1587 1588 1588 1590 1590 1590 1590 1589 1589 1588 1587 1587 1586 1585 1585 1584 1582 1581 1580 1579 1577 1576 1575 1573 1572 1570 1567 1565 1563 1561 1559 1557 1555 1553 1551 1548 1546 1544 1542 1540 1538 1537 1535 1534 1532 1531 1530 1530 1529 1529 1529
1535 1542 1545 1550 1555 1553 1548 1545 1542 1539 1538 1542 1545 1542 1542 1544 1545 1550 1556 1560 1573 1584 1582 1590 1608 1604 1591 1590 1589 1586 1586 1586 1586 1586 1586 1588 1589 1590 1591 1590 1591 1591 1590 1590 1589 1589 1588 1587 1586 1585 1584 1583 1582 1580 1579 1578 1577 1575 1574 1573 1571 1569 1567 1565 1562 1560 1558 1556 1554 1552 1550 1548 1545 1543 1541 1539 1537 1535 1534 1532 1531 1530 1529 1528 1527 1527
1535 1542 1543 1550 1561 1566 1565 1561 1555 1548 1545 1547 1548 1547 1547 1546 1546 1551 1558 1565 1577 1585 1583 1589 1601 1599 1591 1589 1588 1586 1587 1587 1587 1588 1588 1589 1590 1591 1591 1591 1592 1591 1591 1591 1590 1589 1589 1588 1588 1586 1585 1584 1583 1581 1580 1578 1577 1576 1574 1573 1572 1570 1568 1566 1564 1562 1560 1557 1555 1553 1551 1549 1547 1545 1542 1540 1538 1536 1534 1532 1531 1529 1528 1526 1525 1525
1535 1541 1541 1544 1552 1556 1555 1552 1547 1546 1550 1555 1556 1553 1552 1552 1550 1552 1562 1573 1580 1585 1589 1590 1591 1594 1595 1592 1590 1589 1588 1588 1589 1589 1590 1590 1591 1591 1592 1592 1592 1592 1592 1592 1591 1590 1590 1589 1588 1587 1586 1585 1583 1582 1580 1578 1577 1576 1575 1574 1572 1571 1569 1567 1565 1563 1561 1559 1556 1554 1552 1549 1547 1545 1543 1541 1539 1537 1535 1533 1531 1529 1527 1526 1524 1523
1537 1543 1543 1543 1545 1545 1545 1545 1544 1546 1553 1557 1558 1557 1556 1555 1554 1555 1564 1573 1575 1583 1595 1594 1587 1592 1597 1593 1590 1590 1589 1589 1590 1590 1590 1591 1591 1592 1593 1593 1593 1593 1593 1592 1591 1591 1591 1590 1589 1588 1586 1585 1584 1582 1581 1579 1578 1577 1576 1575 1573 1572 1570 1568 1566 1564 1561 1559 1557 1555 1552 1550 1548 1546 1544 1542 1540 1538 1535 1533 1531 1529 1527 1525 1523 1522
1538 1545 1544 1543 1544 1544 1544 1545 1546 1549 1554 1557 1558 1560 1559 1558 1558 1561 1568 1573 1571 1578 1590 1590 1586 1592 1594 1591 1590 1589 1588 1589 1590 1590 1591 1591 1592 1593 1593 1593 1593 1593 1593 1592 1592 1592 1591 1590 1589 1588 1587 1586 1584 1583 1582 1580 1579 1578 1576 1575 1574 1572 1570 1568 1566 1564 1562 1560 1557 1555 1553 1551 1549 1546 1544 1542 1540 1538 1535 1533 1531 1529 1527 1525 1522 1521
1538 1544 1544 1542 1544 1546 1547 1547 1548 1550 1556 1560 1560 1561 1561 1562 1563 1565 1570 1573 1572 1577 1584 1585 1587 1591 1591 1589 1589 1588 1588 1589 1589 1591 1591 1592 1593 1593 1593 1593 1593 1593 1593 1592 1592 1592 1592 1591 1589 1588 1588 1586 1585 1584 1583 1581 1580 1578 1577 1576 1574 1572 1570 1568 1566 1564 1562 1560 1558 1556 1554 1552 1549 1547 1545 1543 1540 1538 1535 1533 1531 1528 1526 1524 1521 1520
1537 1544 1545 1542 1545 1552 1552 1550 1551 1553 1557 1562 1564 1563 1563 1566 1569 1570 1573 1573 1576 1583 1586 1585 1589 1593 1590 1588 1587 1588 1589 1589 1589 1591 1592 1592 1593 1593 1593 1594 1594 1594 1594 1593 1593 1593 1592 1591 1590 1589 1588 1587 1586 1584 1583 1582 1580 1579 1577 1576 1574 1572 1570 1568 1566 1564 1562 1560 1558 1556 1554 1551 1549 1547 1545 1543 1541 1539 1536 1534 1531 1528 1526 1523 1521 1519
1537 1544 1545 1542 1551 1560 1556 1554 1557 1556 1558 1564 1567 1565 1564 1566 1570 1572 1572 1572 1575 1582 1587 1588 1591 1593 1590 1587 1588 1588 1589 1589 1590 1592 1592 1593 1593 1593 1594 1594 1594 1594 1594 1594 1594 1593 1593 1592 1591 1590 1589 1587 1586 1584 1583 1582 1580 1579 1577 1575 1574 1572 1570 1567 1565 1564 1562 1560 1558 1556 1553 1551 1549 1547 1545 1543 1541 1539 1536 1534 1532 1529 1526 1523 1521 1518
1538 1541 1543 1546 1556 1563 1559 1556 1556 1555 1564 1573 1570 1564 1564 1566 1568 1570 1571 1571 1572 1577 1583 1587 1588 1588 1586 1586 1588 1589 1589 1590 1591 1592 1592 1593 1593 1594 1595 1595 1595 1596 1595 1595 1595 1594 1594 1593 1591 1590 1589 1587 1586 1585 1584 1582 1580 1579 1577 1575 1574 1571 1569 1568 1565 1564 1562 1560 1558 1556 1554 1552 1549 1547 1545 1543 1541 1539 1536 1534 1532 1529 1527 1524 1521 1518
1539 1540 1544 1548 1554 1562 1562 1555 1553 1561 1574 1576 1566 1560 1561 1563 1565 1569 1572 1573 1573 1573 1576 1579 1581 1583 1585 1585 1586 1589 1590 1591 1592 1593 1593 1593 1593 1594 1596 1596 1596 1596 1596 1596 1595 1594 1594 1593 1592 1591 1589 1588 1587 1585 1584 1582 1580 1579 1578 1575 1574 1571 1570 1568 1566 1563 1561 1559 1558 1556 1554 1552 1549 1547 1545 1543 1540 1538 1536 1534 1532 1529 1527 1524 1521 1519
1540 1541 1546 1549 1552 1560 1560 1555 1564 1578 1579 1568 1561 1561 1561 1561 1563 1567 1572 1573 1573 1573 1574 1577 1581 1582 1583 1585 1586 1588 1590 1591 1593 1594 1594 1594 1594 1595 1596 1597 1597 1596 1596 1596 1595 1595 1594 1593 1592 1591 1589 1588 1587 1585 1584 1582 1580 1579 1578 1575 1573 1571 1570 1568 1565 1563 1562 1560 1557 1555 1553 1551 1549 1547 1545 1543 1540 1538 1535 1533 1531 1529 1526 1524 1522 1519
1539 1542 1546 1551 1555 1560 1562 1564 1574 1580 1573 1564 1565 1564 1562 1563 1564 1568 1576 1577 1574 1573 1574 1577 1580 1582 1583 1586 1587 1588 1590 1591 1593 1595 1596 1596 1596 1595 1596 1597 1597 1597 1597 1596 1596 1595 1594 1593 1591 1590 1589 1588 1586 1585 1583 1582 1580 1579 1577 1575 1573 1571 1569 1567 1565 1564 1562 1560 1557 1555 1553 1551 1549 1547 1544 1542 1540 1537 1535 1533 1530 1528 1525 1523 1522 1520
1539 1542 1544 1552 1559 1563 1568 1574 1575 1576 1574 1571 1568 1564 1562 1563 1563 1566 1576 1580 1575 1573 1574 1576 1580 1583 1584 1586 1587 1588 1589 1590 1593 1597 1598 1596 1596 1596 1596 1597 1597 1597 1597 1596 1596 1595 1594 1592 1591 1590 1589 1587 1586 1584 1583 1582 1580 1578 1576 1575 1573 1571 1569 1567 1566 1564 1562 1560 1558 1556 1553 1551 1549 1547 1544 1542 1539 1537 1534 1532 1530 1528 1525 1523 1521 1520
1538 1540 1540 1549 1562 1566 1570 1577 1580 1582 1581 1573 1565 1561 1559 1561 1561 1561 1572 1579 1576 1574 1575 1575 1578 1582 1583 1585 1587 1587 1587 1591 1596 1599 1599 1597 1596 1596 1596 1596 1596 1596 1596 1595 1595 1594 1593 1592 1590 1589 1588 1586 1585 1584 1583 1581 1580 1578 1576 1574 1572 1571 1569 1567 1566 1564 1562 1560 1558 1556 1553 1551 1548 1546 1544 1542 1539 1537 1534 1532 1530 1528 1525 1523 1521 1520
1539 1541 1540 1547 1560 1564 1565 1573 1580 1580 1575 1566 1562 1561 1559 1561 1560 1562 1574 1583 1578 1574 1574 1574 1576 1580 1581 1583 1585 1584 1586 1594 1599 1599 1597 1597 1596 1595 1595 1596 1596 1595 1595 1594 1594 1593 1592 1591 1589 1588 1587 1586 1585 1583 1582 1580 1579 1577 1576 1574 1572 1570 1569 1567 1566 1564 1562 1560 1557 1555 1553 1550 1548 1545 1543 1541 1539 1537 1534 1532 1530 1528 1525 1523 1521 1519
1540 1543 1545 1549 1558 1562 1564 1571 1576 1573 1567 1562 1560 1561 1561 1560 1560 1568 1583 1585 1576 1572 1574 1573 1575 1579 1579 1581 1583 1583 1586 1592 1595 1596 1596 1596 1595 1595 1595 1595 1595 1595 1594 1593 1593 1593 1591 1590 1589 1588 1586 1585 1584 1583 1581 1580 1578 1577 1575 1573 1571 1570 1568 1567 1566 1564 1561 1559 1556 1554 1552 1549 1547 1545 1542 1540 1538 1536 1534 1532 1530 1527 1525 1522 1521 1519
1544 1546 1550 1553 1558 1561 1564 1571 1575 1570 1563 1560 1559 1560 1560 1562 1566 1575 1579 1573 1569 1573 1574 1572 1575 1578 1578 1580 1582 1583 1586 1589 1591 1593 1595 1594 1594 1594 1594 1594 1594 1594 1593 1593 1593 1592 1591 1589 1588 1587 1586 1585 1583 1582 1581 1579 1577 1576 1574 1572 1571 1569 1568 1567 1565 1563 1561 1558 1555 1553 1550 1548 1546 1544 1541 1539 1537 1535 1533 1531 1529 1527 1524 1522 1520 1518
1548 1549 1552 1554 1558 1563 1566 1571 1577 1572 1561 1557 1559 1560 1560 1564 1571 1572 1567 1564 1567 1572 1572 1572 1575 1577 1579 1581 1582 1584 1587 1590 1591 1593 1593 1593 1593 1593 1594 1594 1594 1593 1593 1593 1592 1591 1590 1589 1588 1587 1586 1584 1583 1582 1580 1578 1577 1575 1574 1572 1571 1569 1568 1566 1564 1562 1559 1557 1554 1552 1549 1547 1545 1542 1540 1538 1536 1534 1532 1530 1528 1526 1524 1522 1520 1518
1545 1549 1555 1557 1559 1565 1570 1573 1575 1570 1559 1555 1558 1560 1560 1563 1565 1562 1562 1567 1569 1570 1571 1574 1575 1576 1578 1581 1582 1585 1587 1589 1591 1592 1592 1592 1592 1592 1593 1593 1593 1593 1593 1592 1591 1590 1589 1588 1587 1586 1585 1584 1582 1581 1579 1578 1576 1575 1573 1572 1571 1569 1568 1565 1563 1560 1557 1555 1552 1550 1548 1545 1543 1541 1539 1537 1535 1533 1531 1529 1527 1525 1523 1521 1519 1517
1543 1547 1554 1557 1556 1560 1565 1567 1563 1557 1553 1553 1556 1558 1558 1559 1559 1559 1562 1567 1569 1570 1572 1573 1576 1577 1577 1578 1582 1585 1587 1588 1590 1590 1591 1591 1592 1592 1593 1593 1592 1592 1592 1591 1591 1590 1589 1588 1587 1586 1585 1583 1582 1580 1579 1577 1576 1574 1573 1572 1570 1569 1566 1564 1562 1559 1556 1553 1551 1549 1547 1545 1543 1541 1539 1536 1534 1532 1530 1528 1526 1524 1523 1521 1519 1517
1541 1541 1543 1549 1554 1555 1556 1556 1554 1552 1552 1554 1555 1556 1557 1558 1560 1561 1562 1564 1568 1570 1571 1572 1576 1578 1578 1578 1582 1584 1586 1588 1589 1589 1590 1590 1591 1592 1592 1592 1592 1592 1591 1590 1590 1589 1589 1588 1587 1585 1584 1583 1581 1580 1578 1577 1575 1574 1572 1571 1570 1568 1565 1563 1560 1558 1555 1552 1550 1548 1545 1543 1542 1540 1538 1536 1534 1531 1529 1527 1526 1524 1522 1520 1518 1516
1538 1537 1538 1545 1554 1555 1553 1554 1554 1553 1553 1553 1554 1556 1558 1559 1562 1562 1563 1565 1567 1569 1570 1572 1575 1577 1578 1579 1581 1583 1585 1587 1587 1588 1589 1590 1591 1591 1592 1591 1591 1591 1590 1590 1590 1589 1589 1587 1586 1585 1583 1582 1580 1579 1577 1576 1575 1573 1572 1571 1569 1567 1564 1562 1559 1556 1553 1551 1549 1547 1545 1542 1540 1539 1537 1535 1533 1531 1529 1527 1525 1524 1522 1520 1518 1516
1539 1538 1540 1546 1552 1554 1556 1557 1555 1553 1554 1555 1556 1558 1559 1561 1563 1563 1564 1566 1568 1570 1572 1573 1575 1577 1579 1579 1580 1582 1585 1585 1586 1588 1589 1589 1590 1591 1591 1591 1591 1590 1590 1590 1589 1589 1588 1586 1585 1584 1583 1581 1580 1578 1577 1576 1574 1573 1572 1570 1568 1566 1564 1561 1558 1555 1552 1550 1548 1546 1544 1541 1539 1537 1535 1534 1532 1530 1528 1527 1525 1523 1521 1519 1517 1515
1539 1538 1542 1549 1551 1552 1555 1557 1555 1555 1556 1556 1556 1558 1559 1561 1563 1564 1565 1567 1569 1571 1573 1574 1576 1578 1579 1580 1581 1582 1584 1585 1586 1587 1588 1589 1589 1590 1590 1590 1590 1589 1589 1589 1588 1588 1587 1585 1585 1584 1582 1581 1579 1578 1577 1576 1574 1573 1571 1569 1567 1565 1563 1560 1557 1554 1551 1549 1547 1545 1543 1540 1538 1536 1534 1532 1531 1529 1527 1525 1523 1522 1521 1519 1517 1515
1534 1537 1542 1549 1553 1555 1556 1557 1557 1558 1560 1559 1559 1559 1559 1561 1563 1565 1566 1568 1569 1571 1573 1575 1577 1578 1579 1581 1582 1582 1583 1585 1586 1586 1587 1588 1588 1589 1589 1589 1589 1589 1589 1588 1587 1587 1586 1585 1584 1583 1582 1581 1580 1578 1577 1576 1574 1572 1570 1568 1566 1564 1561 1559 1557 1554 1551 1549 1546 1544 1542 1540 1537 1535 1533 1531 1529 1528 1527 1525 1523 1521 1520 1520 1518 1516
1533 1539 1544 1549 1554 1555 1552 1550 1551 1553 1557 1558 1558 1558 1560 1561 1562 1564 1566 1568 1569 1571 1572 1574 1577 1579 1580 1581 1582 1582 1583 1584 1585 1586 1587 1587 1588 1588 1588 1588 1588 1588 1588 1587 1587 1586 1585 1585 1584 1582 1582 1581 1580 1578 1577 1575 1573 1571 1569 1567 1565 1562 1560 1558 1556 1553 1551 1548 1545 1543 1540 1538 1536 1534 1532 1529 1527 1526 1525 1524 1523 1521 1519 1518 1517 1516
1529 1534 1537 1541 1544 1544 1542 1542 1543 1545 1549 1554 1555 1557 1559 1560 1561 1563 1566 1568 1569 1571 1572 1573 1576 1578 1580 1581 1582 1582 1582 1583 1585 1585 1586 1586 1587 1587 1587 1587 1588 1587 1587 1587 1586 1585 1585 1584 1583 1582 1582 1581 1579 1578 1577 1575 1573 1571 1569 1567 1564 1562 1559 1557 1555 1552 1550 1547 1544 1542 1539 1537 1535 1533 1531 1529 1526 1524 1522 1521 1520 1520 1519 1516 1515 1514